When you browse on this site, cookies collect data to enhance your experience and personalize the content and advertising you see.
Visit our Privacy Policy to learn more. By continuing to use the site, you agree to this use of cookies and data.
  • In United States
  • List of Countries
  • For 7 days
  • Water Temperature
  • Satellite Maps
  • Weather Map
  • Weather Widgets
  • user-avatar
    Login

    Hourly Weather Biskira

    Today, 17 December, Monday

    Time Temperature Precipitation Wind Pressure Humidity
    00:00 +14°C° 0 mm 1 mps 758 mmHg 53%
    01:00 +14°C° 0 mm 1 mps 758 mmHg 53%
    02:00 +13°C° 0 mm 1 mps 758 mmHg 54%
    03:00 +13°C° 0 mm 1 mps 758 mmHg 54%
    04:00 +13°C° 0 mm 1 mps 758 mmHg 54%
    05:00 +13°C° 0 mm 2 mps 758 mmHg 53%
    06:00 +14°C° 0 mm 2 mps 758 mmHg 53%
    07:00 +14°C° 0 mm 3 mps 759 mmHg 50%
    08:00 +15°C° 0 mm 4 mps 759 mmHg 48%
    09:00 +18°C° 0 mm 4 mps 759 mmHg 45%
    10:00 +19°C° 0 mm 5 mps 759 mmHg 42%
    11:00 +20°C° 0 mm 5 mps 759 mmHg 39%
    12:00 +21°C° 0 mm 6 mps 759 mmHg 36%
    13:00 +21°C° 0 mm 6 mps 759 mmHg 36%
    14:00 +21°C° 0 mm 6 mps 759 mmHg 36%
    15:00 +21°C° 0 mm 6 mps 759 mmHg 35%
    16:00 +20°C° 0 mm 5 mps 759 mmHg 39%
    17:00 +19°C° 0 mm 5 mps 760 mmHg 43%
    18:00 +17°C° 0 mm 4 mps 760 mmHg 47%
    19:00 +17°C° 0 mm 4 mps 761 mmHg 50%
    20:00 +15°C° 0 mm 4 mps 761 mmHg 52%
    21:00 +14°C° 0 mm 4 mps 762 mmHg 54%
    22:00 +14°C° 0 mm 3 mps 762 mmHg 53%
    23:00 +13°C° 0 mm 3 mps 762 mmHg 53%

    Tomorrow, 18 December, Tuesday

    Time Temperature Precipitation Wind Pressure Humidity
    00:00 +14°C° 0 mm 2 mps 762 mmHg 52%
    01:00 +13°C° 0 mm 2 mps 762 mmHg 53%
    02:00 +13°C° 0 mm 2 mps 762 mmHg 54%
    03:00 +12°C° 0 mm 1 mps 762 mmHg 56%
    04:00 +12°C° 0 mm 1 mps 762 mmHg 58%
    05:00 +11°C° 0 mm 1 mps 762 mmHg 60%
    06:00 +10°C° 0 mm 0 mps 762 mmHg 62%
    07:00 +12°C° 0 mm 1 mps 762 mmHg 57%
    08:00 +14°C° 0 mm 1 mps 762 mmHg 52%
    09:00 +15°C° 0 mm 1 mps 762 mmHg 48%
    10:00 +16°C° 0 mm 2 mps 762 mmHg 45%
    11:00 +17°C° 0 mm 2 mps 761 mmHg 43%
    12:00 +17°C° 0 mm 3 mps 761 mmHg 41%
    13:00 +17°C° 0 mm 3 mps 761 mmHg 41%
    14:00 +17°C° 0 mm 3 mps 760 mmHg 41%
    15:00 +17°C° 0 mm 2 mps 760 mmHg 42%
    16:00 +16°C° 0 mm 2 mps 760 mmHg 45%
    17:00 +15°C° 0 mm 2 mps 760 mmHg 49%
    18:00 +14°C° 0 mm 2 mps 760 mmHg 53%
    19:00 +14°C° 0 mm 2 mps 761 mmHg 53%
    20:00 +14°C° 0 mm 2 mps 761 mmHg 54%
    21:00 +13°C° 0 mm 2 mps 761 mmHg 54%
    22:00 +13°C° 0 mm 1 mps 761 mmHg 55%
    23:00 +12°C° 0 mm 1 mps 761 mmHg 57%

    Day after tomorrow, 19 December, Wednesday

    Time Temperature Precipitation Wind Pressure Humidity
    00:00 +12°C° 0 mm 1 mps 760 mmHg 58%
    01:00 +12°C° 0 mm 1 mps 760 mmHg 59%
    02:00 +11°C° 0 mm 1 mps 760 mmHg 60%
    03:00 +11°C° 0 mm 1 mps 760 mmHg 61%
    04:00 +11°C° 0 mm 1 mps 760 mmHg 61%
    05:00 +11°C° 0 mm 1 mps 760 mmHg 61%
    06:00 +11°C° 0 mm 1 mps 760 mmHg 61%
    07:00 +12°C° 0 mm 1 mps 760 mmHg 57%
    08:00 +13°C° 0 mm 1 mps 760 mmHg 52%
    09:00 +15°C° 0 mm 1 mps 760 mmHg 47%
    10:00 +15°C° 0 mm 1 mps 760 mmHg 45%
    11:00 +16°C° 0 mm 1 mps 759 mmHg 43%
    12:00 +17°C° 0 mm 2 mps 758 mmHg 42%
    13:00 +18°C° 0 mm 1 mps 758 mmHg 41%
    14:00 +18°C° 0 mm 1 mps 758 mmHg 41%
    15:00 +19°C° 0 mm 1 mps 757 mmHg 41%
    16:00 +16°C° 0 mm 1 mps 757 mmHg 45%
    17:00 +15°C° 0 mm 1 mps 757 mmHg 50%
    18:00 +13°C° 0 mm 0 mps 758 mmHg 54%
    19:00 +13°C° 0 mm 0 mps 758 mmHg 54%
    20:00 +13°C° 0 mm 0 mps 758 mmHg 55%
    21:00 +13°C° 0 mm 0 mps 758 mmHg 56%
    22:00 +12°C° 0 mm 0 mps 758 mmHg 56%
    23:00 +12°C° 0 mm 0 mps 758 mmHg 57%

    20 December, Thursday

    Time Temperature Precipitation Wind Pressure Humidity
    00:00 +12°C° 0 mm 0 mps 758 mmHg 58%
    01:00 +13°C° 0 mm 1 mps 758 mmHg 58%
    02:00 +13°C° 0 mm 1 mps 758 mmHg 57%
    03:00 +12°C° 0 mm 1 mps 758 mmHg 57%
    04:00 +13°C° 0 mm 1 mps 758 mmHg 57%
    05:00 +13°C° 0 mm 1 mps 758 mmHg 57%
    06:00 +13°C° 0 mm 1 mps 758 mmHg 57%
    07:00 +14°C° 0 mm 1 mps 758 mmHg 53%
    08:00 +15°C° 0 mm 2 mps 759 mmHg 49%
    09:00 +17°C° 0 mm 2 mps 759 mmHg 45%
    10:00 +18°C° 0 mm 2 mps 759 mmHg 43%
    11:00 +19°C° 0 mm 2 mps 758 mmHg 42%
    12:00 +20°C° 0 mm 3 mps 758 mmHg 40%
    13:00 +20°C° 0 mm 3 mps 758 mmHg 40%
    14:00 +20°C° 0 mm 3 mps 758 mmHg 40%
    15:00 +20°C° 0 mm 3 mps 757 mmHg 40%
    16:00 +19°C° 0 mm 2 mps 758 mmHg 45%
    17:00 +18°C° 0 mm 2 mps 758 mmHg 49%
    18:00 +17°C° 0 mm 2 mps 759 mmHg 53%
    19:00 +17°C° 0 mm 2 mps 759 mmHg 54%
    20:00 +16°C° 0 mm 2 mps 759 mmHg 54%
    21:00 +16°C° 0 mm 2 mps 760 mmHg 55%
    22:00 +16°C° 0 mm 2 mps 760 mmHg 57%
    23:00 +15°C° 0 mm 2 mps 760 mmHg 59%

    21 December, Friday

    Time Temperature Precipitation Wind Pressure Humidity
    00:00 +14°C° 0 mm 2 mps 760 mmHg 61%
    01:00 +14°C° 0 mm 2 mps 760 mmHg 62%
    02:00 +14°C° 0 mm 2 mps 760 mmHg 62%
    03:00 +14°C° 0 mm 2 mps 760 mmHg 63%
    04:00 +13°C° 0 mm 2 mps 760 mmHg 65%
    05:00 +13°C° 0 mm 2 mps 760 mmHg 67%
    06:00 +13°C° 0 mm 2 mps 761 mmHg 68%
    07:00 +14°C° 0 mm 2 mps 761 mmHg 64%
    08:00 +15°C° 0 mm 2 mps 762 mmHg 60%
    09:00 +16°C° 0 mm 2 mps 762 mmHg 56%
    10:00 +17°C° 0 mm 2 mps 762 mmHg 52%
    11:00 +18°C° 0 mm 2 mps 762 mmHg 49%
    12:00 +18°C° 0 mm 2 mps 762 mmHg 45%
    13:00 +18°C° 0 mm 2 mps 762 mmHg 45%
    14:00 +18°C° 0 mm 2 mps 761 mmHg 45%
    15:00 +20°C° 0 mm 1 mps 761 mmHg 45%
    16:00 +18°C° 0 mm 1 mps 762 mmHg 49%
    17:00 +16°C° 0 mm 1 mps 762 mmHg 53%
    18:00 +15°C° 0 mm 1 mps 762 mmHg 57%
    19:00 +15°C° 0 mm 1 mps 763 mmHg 59%
    20:00 +14°C° 0 mm 1 mps 763 mmHg 60%
    21:00 +14°C° 0 mm 1 mps 763 mmHg 62%
    22:00 +14°C° 0 mm 1 mps 763 mmHg 62%
    23:00 +13°C° 0 mm 1 mps 763 mmHg 63%

    22 December, Saturday

    Time Temperature Precipitation Wind Pressure Humidity
    00:00 +13°C° 0 mm 1 mps 763 mmHg 64%
    01:00 +13°C° 0 mm 1 mps 763 mmHg 64%
    02:00 +13°C° 0 mm 1 mps 763 mmHg 65%
    03:00 +12°C° 0 mm 1 mps 763 mmHg 66%
    04:00 +12°C° 0 mm 1 mps 763 mmHg 66%
    05:00 +12°C° 0 mm 1 mps 763 mmHg 66%
    06:00 +12°C° 0 mm 1 mps 763 mmHg 66%
    07:00 +13°C° 0 mm 1 mps 764 mmHg 60%
    08:00 +14°C° 0 mm 1 mps 764 mmHg 54%
    09:00 +16°C° 0 mm 1 mps 764 mmHg 48%
    10:00 +18°C° 0 mm 1 mps 764 mmHg 45%
    11:00 +18°C° 0 mm 2 mps 764 mmHg 42%
    12:00 +19°C° 0 mm 2 mps 763 mmHg 39%
    13:00 +19°C° 0 mm 2 mps 763 mmHg 38%
    14:00 +19°C° 0 mm 2 mps 763 mmHg 37%
    15:00 +19°C° 0 mm 2 mps 763 mmHg 36%
    16:00 +18°C° 0 mm 2 mps 763 mmHg 40%
    17:00 +18°C° 0 mm 1 mps 763 mmHg 44%
    18:00 +16°C° 0 mm 1 mps 763 mmHg 48%
    19:00 +16°C° 0 mm 1 mps 763 mmHg 49%
    20:00 +15°C° 0 mm 1 mps 764 mmHg 50%
    21:00 +14°C° 0 mm 0 mps 764 mmHg 51%
    22:00 +13°C° 0 mm 0 mps 764 mmHg 52%
    23:00 +13°C° 0 mm 0 mps 764 mmHg 52%
    Show more